EW7067 Weather Reports


Display with metric or nautical units.
time (UTC)temp
F
wind
direction
speed
MPH
gust
MPH
rain 1hr
in
rain 24hr
in
rain mn
in
humidity
%
barometer
mb
20260905171534 91 339 4.0 10.0 0.00 0.00 0.00 67 969.3
20260905171029 92 305 4.0 9.0 0.00 0.00 0.00 67 969.1
20260905170522 93 317 3.0 9.0 0.00 0.00 0.00 63 969.2
20260905170015 93 5 3.0 9.0 0.00 0.00 0.00 65 969.3
20260905165512 93 302 4.0 11.0 0.00 0.00 0.00 64 969.4
20260905165004 93 347 3.0 11.0 0.00 0.00 0.00 65 969.6
20260905163951 93 207 3.0 11.0 0.00 0.00 0.00 62 969.6
20260905163447 93 273 4.0 9.0 0.00 0.00 0.00 62 969.6
20260905162939 93 305 3.0 9.0 0.00 0.00 0.00 65 969.6
20260905161928 93 28 1.0 4.0 0.00 0.00 0.00 62 969.6
20260905161422 94 29 1.0 4.0 0.00 0.00 0.00 63 969.6
20260905160916 93 29 1.0 5.0 0.00 0.00 0.00 65 969.7
20260905160410 93 29 2.0 7.0 0.00 0.00 0.00 64 969.9
20260905155904 93 30 1.0 7.0 0.00 0.00 0.00 66 969.9
20260905155358 93 304 1.0 3.0 0.00 0.00 0.00 65 969.9
20260905154852 93 304 1.0 5.0 0.00 0.00 0.00 65 970.0
20260905154346 92 308 1.0 5.0 0.00 0.00 0.00 67 969.9
20260905153840 92 308 1.0 4.0 0.00 0.00 0.00 70 969.9
20260905153334 92 308 1.0 7.0 0.00 0.00 0.00 67 969.8
20260905152828 91 254 2.0 7.0 0.00 0.00 0.00 71 969.7
20260905152322 91 321 2.0 5.0 0.00 0.00 0.00 70 969.7
20260905151816 91 322 3.0 7.0 0.00 0.00 0.00 68 969.7
20260905150803 91 323 1.0 4.0 0.00 0.00 0.00 72 969.7
20260905150259 91 310 1.0 3.0 0.00 0.00 0.00 74 969.7
20260905145751 90 310 1.0 3.0 0.00 0.00 0.00 74 969.7
20260905145246 90 315 1.0 3.0 0.00 0.00 0.00 75 969.8
20260905144740 89 311 1.0 4.0 0.00 0.00 0.00 75 969.8
20260905144234 89 311 1.0 4.0 0.00 0.00 0.00 76 969.9
20260905143223 88 5 1.0 3.0 0.00 0.00 0.00 76 970.0
20260905142716 88 5 1.0 3.0 0.00 0.00 0.00 77 969.9
20260905141706 87 114 0.0 1.0 0.00 0.00 0.00 80 969.8
20260905141158 87 114 0.0 2.0 0.00 0.00 0.00 79 969.8
20260905140146 85 114 0.0 2.0 0.00 0.00 0.00 81 969.7
20260905135640 84 114 0.0 2.0 0.00 0.00 0.00 82 969.6
20260905135134 83 42 0.0 1.0 0.00 0.00 0.00 84 969.7
20260905134122 82 42 0.0 2.0 0.00 0.00 0.00 84 969.9
20260905133110 81 42 0.0 0.0 0.00 0.00 0.00 84 970.1
20260905132604 80 42 0.0 0.0 0.00 0.00 0.00 82 970.1
20260905132058 79 42 0.0 0.0 0.00 0.00 0.00 79 970.1
20260905131552 77 42 0.0 0.0 0.00 0.00 0.00 74 970.1
20260905131046 76 42 0.0 0.0 0.00 0.00 0.00 70 970.1
20260905130540 76 42 0.0 0.0 0.00 0.00 0.00 67 970.2
20260905130034 75 42 0.0 0.0 0.00 0.00 0.00 66 970.2
20260905125528 74 42 0.0 0.0 0.00 0.00 0.00 66 970.2
20260905125022 73 42 0.0 0.0 0.00 0.00 0.00 66 970.2
20260905124516 72 42 0.0 0.0 0.00 0.00 0.00 67 970.2
20260905124010 71 42 0.0 0.0 0.00 0.00 0.00 67 970.2
20260905123504 70 42 0.0 0.0 0.00 0.00 0.00 67 970.2
20260905123000 70 42 0.0 0.0 0.00 0.00 0.00 67 970.1
20260905122456 70 42 0.0 0.0 0.00 0.00 0.00 68 970.2
20260905121457 69 42 0.0 0.0 0.00 0.00 0.00 68 970.0
20260905120957 69 42 0.0 0.0 0.00 0.00 0.00 68 970.0
20260905120456 68 42 0.0 0.0 0.00 0.00 0.00 68 970.0
20260905115955 68 42 0.0 0.0 0.00 0.00 0.00 69 969.9
20260905114955 68 42 0.0 0.0 0.00 0.00 0.00 69 969.9
20260905114454 68 42 0.0 0.0 0.00 0.00 0.00 69 969.9
20260905113950 68 42 0.0 0.0 0.00 0.00 0.00 69 969.9
20260905113448 68 42 0.0 0.0 0.00 0.00 0.00 69 969.8
20260905112948 68 42 0.0 0.0 0.00 0.00 0.00 69 969.8
20260905112447 68 42 0.0 0.0 0.00 0.00 0.00 69 969.6
20260905111945 68 42 0.0 0.0 0.00 0.00 0.00 69 969.5
20260905111443 68 42 0.0 0.0 0.00 0.00 0.00 69 969.6
20260905110943 68 42 0.0 0.0 0.00 0.00 0.00 69 969.5
20260905105938 68 42 0.0 0.0 0.00 0.00 0.00 70 969.4
20260905104939 68 42 0.0 0.0 0.00 0.00 0.00 69 969.2
20260905104438 68 42 0.0 0.0 0.00 0.00 0.00 69 969.3
20260905103938 68 42 0.0 0.0 0.00 0.00 0.00 70 969.3
20260905103439 68 42 0.0 0.0 0.00 0.00 0.00 70 969.4
20260905102938 68 42 0.0 0.0 0.00 0.00 0.00 69 969.4
20260905102440 68 42 0.0 0.0 0.00 0.00 0.00 70 969.4
20260905101939 68 42 0.0 0.0 0.00 0.00 0.00 70 969.3
20260905101440 68 42 0.0 0.0 0.00 0.00 0.00 70 969.2
20260905100439 68 42 0.0 0.0 0.00 0.00 0.00 70 969.2
20260905095938 68 42 0.0 0.0 0.00 0.00 0.00 70 969.2
20260905094938 68 42 0.0 0.0 0.00 0.00 0.00 71 969.1
20260905094438 68 42 0.0 0.0 0.00 0.00 0.00 71 969.0
20260905093939 68 42 0.0 0.0 0.00 0.00 0.00 71 969.1
20260905092938 69 42 0.0 0.0 0.00 0.00 0.00 71 969.1
20260905092439 69 42 0.0 0.0 0.00 0.00 0.00 71 969.1
20260905091939 69 42 0.0 0.0 0.00 0.00 0.00 72 969.0
20260905091439 69 42 0.0 0.0 0.00 0.00 0.00 72 969.0
20260905090938 69 42 0.0 0.0 0.00 0.00 0.00 71 969.1
20260905090438 69 42 0.0 0.0 0.00 0.00 0.00 71 969.0
20260905085939 69 42 0.0 0.0 0.00 0.00 0.00 71 969.1
20260905085438 69 42 0.0 0.0 0.00 0.00 0.00 71 969.1
20260905084433 69 42 0.0 0.0 0.00 0.00 0.00 72 969.2
20260905083927 69 42 0.0 0.0 0.00 0.00 0.00 72 969.3
20260905083422 69 42 0.0 0.0 0.00 0.00 0.00 72 969.3
20260905082915 69 42 0.0 0.0 0.00 0.00 0.00 72 969.4
20260905082409 69 42 0.0 0.0 0.00 0.00 0.00 73 969.5
20260905081904 69 42 0.0 0.0 0.00 0.00 0.00 73 969.4
20260905080852 70 42 0.0 0.0 0.00 0.00 0.00 73 969.6
20260905080345 70 42 0.0 0.0 0.00 0.00 0.00 73 969.6
20260905075838 70 42 0.0 0.0 0.00 0.00 0.00 73 969.7
20260905074321 70 42 0.0 0.0 0.00 0.00 0.00 75 969.8
20260905073816 70 42 0.0 0.0 0.00 0.00 0.00 74 969.8
20260905072803 70 42 0.0 0.0 0.00 0.00 0.00 74 969.7
20260905072257 71 42 0.0 0.0 0.00 0.00 0.00 74 969.8
20260905071751 71 42 0.0 0.0 0.00 0.00 0.00 75 969.8
20260905070233 71 42 0.0 0.0 0.00 0.00 0.00 75 970.0
20260905065727 71 42 0.0 0.0 0.00 0.00 0.00 75 970.1
20260905065221 71 42 0.0 0.0 0.00 0.00 0.00 75 970.1
20260905064716 71 42 0.0 0.0 0.00 0.00 0.00 75 970.2
20260905063703 71 42 0.0 0.0 0.00 0.00 0.00 75 970.3
20260905063157 71 42 0.0 0.0 0.00 0.00 0.00 75 970.3
20260905062650 71 42 0.0 0.0 0.00 0.00 0.00 76 970.5
20260905062145 71 42 0.0 0.0 0.00 0.00 0.00 77 970.5
20260905061640 71 42 0.0 0.0 0.00 0.00 0.00 77 970.6
20260905060627 72 42 0.0 0.0 0.00 0.00 0.00 78 970.8
20260905060121 72 42 0.0 0.0 0.00 0.00 0.00 78 970.8
20260905055615 72 42 0.0 0.0 0.00 0.00 0.00 77 970.8
20260905054603 72 42 0.0 0.0 0.00 0.00 0.00 78 971.1
20260905054057 73 42 0.0 0.0 0.00 0.00 0.00 78 971.2
20260905053551 73 42 0.0 0.0 0.00 0.00 0.00 78 971.2
20260905053044 73 42 0.0 0.0 0.00 0.00 0.00 78 971.2
20260905052541 73 42 0.0 0.0 0.00 0.00 0.00 78 971.3
20260905051527 73 42 0.0 0.0 0.00 0.00 0.00 79 971.3
20260905051021 73 42 0.0 0.0 0.00 0.00 0.00 80 971.4
20260905050515 73 42 0.0 0.0 0.00 0.00 0.00 80 971.4
20260905050009 73 42 0.0 0.0 0.00 0.00 0.00 80 971.4
20260905044957 73 42 0.0 0.0 0.00 0.00 0.00 81 971.4
20260905044451 73 42 0.0 0.0 0.00 0.00 0.00 81 971.6
20260905043945 73 42 0.0 0.0 0.00 0.00 0.00 81 971.6
20260905043440 73 42 0.0 0.0 0.00 0.00 0.00 81 971.5
20260905042934 74 42 0.0 0.0 0.00 0.00 0.00 82 971.5
20260905042429 74 42 0.0 0.0 0.00 0.00 0.00 82 971.4
20260905041921 74 42 0.0 0.0 0.00 0.00 0.00 82 971.4
20260905041415 74 42 0.0 0.0 0.00 0.00 0.00 82 971.4
20260905040909 74 42 0.0 0.0 0.00 0.00 0.00 82 971.2
20260905040403 74 42 0.0 0.0 0.00 0.00 0.00 82 971.3
20260905035856 74 42 0.0 0.0 0.00 0.00 0.00 82 971.2
20260905034845 74 42 0.0 0.0 0.00 0.00 0.00 82 971.2
20260905034339 74 42 0.0 0.0 0.00 0.00 0.00 82 971.0
20260905033833 74 42 0.0 0.0 0.00 0.00 0.00 83 970.9
20260905033328 74 42 0.0 0.0 0.00 0.00 0.00 83 970.8
20260905032315 75 42 0.0 0.0 0.00 0.00 0.00 83 970.9
20260905031810 75 42 0.0 0.0 0.00 0.00 0.00 83 970.8
20260905030757 75 42 0.0 0.0 0.00 0.00 0.00 83 970.7
20260905030252 75 42 0.0 0.0 0.00 0.00 0.00 83 970.8
20260905025746 75 42 0.0 0.0 0.00 0.00 0.00 84 970.7
20260905025238 75 42 0.0 0.0 0.00 0.00 0.00 84 970.7
20260905024227 75 42 0.0 0.0 0.00 0.00 0.00 85 970.6
20260905023721 75 42 0.0 0.0 0.00 0.00 0.00 85 970.6
20260905023216 76 42 0.0 0.0 0.00 0.00 0.00 85 970.5
20260905022709 76 42 0.0 0.0 0.00 0.00 0.00 85 970.5
20260905022203 76 42 0.0 0.0 0.00 0.00 0.00 85 970.5
20260905021656 76 42 0.0 0.0 0.00 0.00 0.00 85 970.6
20260905021151 76 42 0.0 0.0 0.00 0.00 0.00 85 970.7
20260905020139 76 42 0.0 0.0 0.00 0.00 0.00 85 970.8
20260905015633 76 42 0.0 0.0 0.00 0.00 0.00 85 970.8
20260905015127 76 42 0.0 0.0 0.00 0.00 0.00 86 970.8
20260905014621 76 42 0.0 0.0 0.00 0.00 0.00 86 970.7
20260905014115 77 42 0.0 0.0 0.00 0.00 0.00 86 970.7
20260905013610 77 42 0.0 0.0 0.00 0.00 0.00 85 970.7
20260905012557 77 42 0.0 0.0 0.00 0.00 0.00 85 970.8
20260905011545 78 42 0.0 0.0 0.00 0.00 0.00 85 970.8
20260905011039 78 42 0.0 0.0 0.00 0.00 0.00 85 970.9
20260905010532 78 42 0.0 0.0 0.00 0.00 0.00 85 970.9
20260905010027 78 42 0.0 0.0 0.00 0.00 0.00 85 971.0
20260905005522 78 42 0.0 0.0 0.00 0.00 0.00 85 971.0
20260905005015 78 42 0.0 0.0 0.00 0.00 0.00 85 971.0
20260905004509 78 42 0.0 0.0 0.00 0.00 0.00 85 971.1
20260905004003 78 42 0.0 0.0 0.00 0.00 0.00 85 971.1
20260905003457 78 42 0.0 0.0 0.00 0.00 0.00 85 971.1
20260905002950 79 42 0.0 0.0 0.00 0.00 0.00 85 971.0
20260905002444 79 42 0.0 0.0 0.00 0.00 0.00 85 971.0
20260905001433 79 42 0.0 0.0 0.00 0.00 0.00 85 971.0
20260905000420 80 42 0.0 0.0 0.00 0.00 0.00 85 971.0
20260904235914 81 42 0.0 0.0 0.00 0.00 0.00 84 970.9
20260904234903 82 42 0.0 0.0 0.00 0.00 0.00 83 970.9
20260904233851 83 42 0.0 0.0 0.00 0.00 0.00 82 971.0
20260904232839 84 42 0.0 0.0 0.00 0.00 0.00 81 970.9
20260904232332 84 42 0.0 0.0 0.00 0.00 0.00 80 970.9
20260904231829 85 42 0.0 0.0 0.00 0.00 0.00 79 971.0
20260904231323 85 42 0.0 0.0 0.00 0.00 0.00 78 970.8
20260904230815 85 42 0.0 2.0 0.00 0.00 0.00 78 970.8
20260904230309 86 42 0.0 2.0 0.00 0.00 0.00 77 970.7
20260904225257 86 42 0.0 3.0 0.00 0.00 0.00 76 970.7
20260904224751 86 42 0.0 3.0 0.00 0.00 0.00 74 970.5
20260904224245 87 55 0.0 3.0 0.00 0.00 0.00 74 970.6
20260904223738 87 55 1.0 3.0 0.00 0.00 0.00 73 970.6
20260904223232 88 57 1.0 4.0 0.00 0.00 0.00 71 970.5
20260904222728 88 53 1.0 4.0 0.00 0.00 0.00 71 970.5
20260904222221 88 53 1.0 5.0 0.00 0.00 0.00 71 970.5
20260904221715 89 67 1.0 5.0 0.00 0.00 0.00 70 970.6
20260904220703 89 53 2.0 5.0 0.00 0.00 0.00 69 971.0
20260904220158 89 34 2.0 7.0 0.00 0.00 0.00 71 971.0
20260904215659 89 34 1.0 7.0 0.00 0.00 0.00 70 970.8
20260904215157 88 26 2.0 5.0 0.00 0.00 0.00 71 970.8
20260904214658 87 79 3.0 8.0 0.00 0.00 0.00 70 970.8
20260904214158 87 39 3.0 8.0 0.00 0.00 0.00 72 970.9
20260904213658 87 71 2.0 7.0 0.00 0.00 0.00 72 970.7
20260904213158 87 55 2.0 7.0 0.00 0.00 0.00 72 970.6
20260904212658 87 105 3.0 10.0 0.00 0.00 0.00 71 970.7
20260904212158 88 84 4.0 10.0 0.00 0.00 0.00 70 970.7
20260904211657 89 74 6.0 14.0 0.00 0.00 0.00 70 970.7
20260904211158 92 30 5.0 14.0 0.00 0.00 0.00 66 970.8
20260904210657 94 28 4.0 13.0 0.00 0.00 0.00 63 970.6
20260904210158 95 67 3.0 13.0 0.00 0.00 0.00 61 970.5
20260904205656 97 292 2.0 8.0 0.00 0.00 0.00 56 970.3
20260904205158 98 250 2.0 5.0 0.00 0.00 0.00 57 970.3
20260904204655 98 183 2.0 8.0 0.00 0.00 0.00 58 970.4
20260904204155 97 175 2.0 8.0 0.00 0.00 0.00 55 970.3
20260904203655 97 134 3.0 8.0 0.00 0.00 0.00 58 970.3
20260904203154 97 174 3.0 8.0 0.00 0.00 0.00 55 970.3
20260904202653 97 304 1.0 8.0 0.00 0.00 0.00 56 970.4
20260904201654 96 294 3.0 9.0 0.00 0.00 0.00 55 970.5
20260904201155 96 281 3.0 9.0 0.00 0.00 0.00 55 970.7
20260904200653 97 304 2.0 7.0 0.00 0.00 0.00 57 970.6
20260904200150 97 300 2.0 7.0 0.00 0.00 0.00 56 970.5
20260904195649 97 355 2.0 10.0 0.00 0.00 0.00 54 970.6
20260904195151 97 161 2.0 10.0 0.00 0.00 0.00 61 970.6
20260904194649 97 277 2.0 7.0 0.00 0.00 0.00 58 970.6
20260904194150 97 209 2.0 8.0 0.00 0.00 0.00 59 970.6